| time (UTC) | temp C | wind direction | speed KPH | gust KPH | rain 1hr cm | rain 24hr cm | rain mn cm | humidity % | barometer mb |
| 20260508005242 | 8 | 299 | 8.0 | 8.0 | 0.00 | 0.00 | 0.00 | 54 | 1000.5 |
| 20260508004744 | 9 | 288 | 1.6 | 8.0 | 0.00 | 0.00 | 0.00 | 53 | 1000.5 |
| 20260508004212 | 9 | 281 | 8.0 | 8.0 | 0.00 | 0.00 | 0.00 | 53 | 1000.5 |
| 20260508003645 | 9 | 260 | 9.7 | 8.0 | 0.00 | 0.00 | 0.00 | 51 | 1000.2 |
| 20260508003145 | 10 | 271 | 14.5 | 11.3 | 0.00 | 0.00 | 0.00 | 50 | 1000.2 |
| 20260508002643 | 10 | 258 | 19.3 | 16.1 | 0.00 | 0.00 | 0.00 | 49 | 1000.2 |
| 20260508002144 | 10 | 306 | 20.9 | 16.1 | 0.00 | 0.00 | 0.00 | 48 | 1000.2 |
| 20260508001612 | 10 | 263 | 11.3 | 8.0 | 0.00 | 0.00 | 0.00 | 48 | 1000.3 |
| 20260508001113 | 10 | 248 | 25.7 | 22.5 | 0.00 | 0.00 | 0.00 | 48 | 1000.3 |
| 20260508000543 | 10 | 303 | 20.9 | 19.3 | 0.00 | 0.00 | 0.00 | 48 | 1000.3 |
| 20260508000044 | 10 | 314 | 14.5 | 12.9 | 0.00 | 0.00 | 0.00 | 48 | 1000.2 |
| 20260507235512 | 10 | 260 | 19.3 | 12.9 | 0.00 | 0.00 | 0.00 | 48 | 1000.2 |
| 20260507235012 | 10 | 239 | 16.1 | 11.3 | 0.00 | 0.00 | 0.00 | 47 | 1000.1 |
| 20260507234443 | 10 | 233 | 12.9 | 11.3 | 0.00 | 0.00 | 0.00 | 47 | 1000.1 |
| 20260507233946 | 11 | 8 | 14.5 | 9.7 | 0.00 | 0.00 | 0.00 | 46 | 1000.0 |
| 20260507233441 | 11 | 307 | 20.9 | 22.5 | 0.00 | 0.00 | 0.00 | 45 | 1000.0 |
| 20260507232942 | 11 | 245 | 19.3 | 12.9 | 0.00 | 0.00 | 0.00 | 44 | 1000.0 |
| 20260507232442 | 11 | 248 | 14.5 | 12.9 | 0.00 | 0.00 | 0.00 | 43 | 1000.0 |
| 20260507231951 | 12 | 242 | 27.4 | 20.9 | 0.00 | 0.00 | 0.00 | 42 | 1000.0 |
| 20260507231413 | 12 | 259 | 24.1 | 14.5 | 0.00 | 0.00 | 0.00 | 42 | 1000.0 |
| 20260507230912 | 12 | 152 | 20.9 | 22.5 | 0.00 | 0.00 | 0.00 | 42 | 1000.0 |
| 20260507225918 | 11 | 253 | 20.9 | 16.1 | 0.00 | 0.00 | 0.00 | 46 | 1000.0 |
| 20260507225413 | 11 | 309 | 14.5 | 9.7 | 0.00 | 0.00 | 0.00 | 46 | 1000.0 |
| 20260507224915 | 11 | 262 | 19.3 | 16.1 | 0.00 | 0.00 | 0.00 | 47 | 1000.0 |
| 20260507224415 | 11 | 263 | 16.1 | 20.9 | 0.00 | 0.00 | 0.00 | 46 | 1000.0 |
| 20260507223913 | 11 | 280 | 16.1 | 27.4 | 0.00 | 0.00 | 0.00 | 46 | 1000.1 |
| 20260507223411 | 11 | 269 | 25.7 | 19.3 | 0.00 | 0.00 | 0.00 | 45 | 1000.1 |
| 20260507222412 | 12 | 248 | 32.2 | 37.0 | 0.00 | 0.00 | 0.00 | 44 | 1000.0 |
| 20260507221913 | 12 | 252 | 24.1 | 20.9 | 0.00 | 0.00 | 0.00 | 43 | 1000.0 |
| 20260507221412 | 12 | 270 | 29.0 | 29.0 | 0.00 | 0.00 | 0.00 | 42 | 1000.0 |
| 20260507220842 | 12 | 272 | 32.2 | 25.7 | 0.00 | 0.00 | 0.00 | 43 | 1000.0 |
| 20260507220342 | 11 | 202 | 29.0 | 25.7 | 0.00 | 0.00 | 0.00 | 43 | 999.9 |
| 20260507215845 | 11 | 270 | 29.0 | 20.9 | 0.00 | 0.00 | 0.00 | 43 | 999.9 |
| 20260507215311 | 12 | 248 | 27.4 | 19.3 | 0.00 | 0.00 | 0.00 | 42 | 999.9 |
| 20260507214814 | 12 | 248 | 27.4 | 19.3 | 0.00 | 0.00 | 0.00 | 42 | 999.8 |
| 20260507214241 | 12 | 222 | 24.1 | 16.1 | 0.00 | 0.00 | 0.00 | 41 | 999.8 |
| 20260507213741 | 13 | 225 | 27.4 | 25.7 | 0.00 | 0.00 | 0.00 | 41 | 999.6 |
| 20260507213241 | 12 | 254 | 35.4 | 22.5 | 0.00 | 0.00 | 0.00 | 41 | 999.6 |
| 20260507212742 | 13 | 247 | 40.2 | 27.4 | 0.00 | 0.00 | 0.00 | 40 | 999.6 |
| 20260507212241 | 13 | 209 | 40.2 | 40.2 | 0.00 | 0.00 | 0.00 | 40 | 999.6 |
| 20260507211743 | 13 | 232 | 35.4 | 25.7 | 0.00 | 0.00 | 0.00 | 40 | 999.6 |
| 20260507211241 | 13 | 280 | 49.9 | 33.8 | 0.00 | 0.00 | 0.00 | 40 | 999.6 |
| 20260507210741 | 13 | 232 | 48.3 | 46.7 | 0.00 | 0.00 | 0.00 | 39 | 999.6 |
| 20260507210241 | 12 | 261 | 25.7 | 22.5 | 0.00 | 0.00 | 0.00 | 41 | 999.4 |
| 20260507205741 | 13 | 197 | 37.0 | 27.4 | 0.00 | 0.00 | 0.00 | 40 | 999.4 |
| 20260507205243 | 13 | 184 | 32.2 | 22.5 | 0.00 | 0.00 | 0.00 | 41 | 999.4 |
| 20260507204712 | 12 | 213 | 41.8 | 38.6 | 0.00 | 0.00 | 0.00 | 43 | 999.4 |
| 20260507204211 | 12 | 207 | 29.0 | 40.2 | 0.00 | 0.00 | 0.00 | 44 | 999.4 |
| 20260507203711 | 12 | 303 | 33.8 | 24.1 | 0.00 | 0.00 | 0.00 | 43 | 999.6 |
| 20260507203211 | 13 | 234 | 35.4 | 27.4 | 0.00 | 0.00 | 0.00 | 41 | 999.6 |
| 20260507202858 | 13 | 237 | 37.0 | 25.7 | 0.00 | 0.00 | 0.00 | 42 | 999.4 |
| 20260507202711 | 13 | 237 | 37.0 | 25.7 | 0.00 | 0.00 | 0.00 | 42 | 999.4 |
| 20260507202217 | 13 | 233 | 41.8 | 32.2 | 0.00 | 0.00 | 0.00 | 42 | 999.4 |
| 20260507201715 | 12 | 270 | 49.9 | 32.2 | 0.00 | 0.00 | 0.00 | 42 | 999.4 |
| 20260507201211 | 13 | 270 | 45.1 | 48.3 | 0.00 | 0.00 | 0.00 | 40 | 999.4 |
| 20260507200641 | 13 | 224 | 40.2 | 25.7 | 0.00 | 0.00 | 0.00 | 40 | 999.4 |
| 20260507200110 | 13 | 245 | 59.5 | 48.3 | 0.00 | 0.00 | 0.00 | 39 | 999.5 |
| 20260507195611 | 13 | 252 | 40.2 | 32.2 | 0.00 | 0.00 | 0.00 | 41 | 999.5 |
| 20260507195114 | 13 | 190 | 32.2 | 25.7 | 0.00 | 0.00 | 0.00 | 43 | 999.4 |
| 20260507194610 | 12 | 313 | 38.6 | 38.6 | 0.00 | 0.00 | 0.00 | 43 | 999.4 |
| 20260507194110 | 12 | 233 | 22.5 | 25.7 | 0.00 | 0.00 | 0.00 | 43 | 999.4 |
| 20260507193540 | 12 | 220 | 41.8 | 24.1 | 0.00 | 0.00 | 0.00 | 41 | 999.4 |
| 20260507193043 | 12 | 217 | 29.0 | 19.3 | 0.00 | 0.00 | 0.00 | 43 | 999.4 |
| 20260507192541 | 12 | 297 | 27.4 | 32.2 | 0.00 | 0.00 | 0.00 | 44 | 999.4 |
| 20260507192041 | 12 | 290 | 32.2 | 22.5 | 0.00 | 0.00 | 0.00 | 45 | 999.4 |
| 20260507191541 | 12 | 304 | 40.2 | 32.2 | 0.00 | 0.00 | 0.00 | 43 | 999.6 |
| 20260507191040 | 12 | 262 | 37.0 | 29.0 | 0.00 | 0.00 | 0.00 | 43 | 999.6 |
| 20260507190541 | 11 | 239 | 62.8 | 40.2 | 0.00 | 0.00 | 0.00 | 42 | 999.6 |
| 20260507190041 | 11 | 225 | 37.0 | 29.0 | 0.00 | 0.00 | 0.00 | 42 | 999.5 |
| 20260507185540 | 11 | 215 | 35.4 | 33.8 | 0.00 | 0.00 | 0.00 | 41 | 999.5 |
| 20260507185042 | 11 | 254 | 41.8 | 35.4 | 0.00 | 0.00 | 0.00 | 41 | 999.6 |
| 20260507184542 | 12 | 212 | 35.4 | 24.1 | 0.00 | 0.00 | 0.00 | 41 | 999.6 |
| 20260507184044 | 12 | 266 | 40.2 | 41.8 | 0.00 | 0.00 | 0.00 | 41 | 999.5 |
| 20260507183540 | 12 | 256 | 29.0 | 25.7 | 0.00 | 0.00 | 0.00 | 43 | 999.5 |
| 20260507183010 | 11 | 210 | 32.2 | 32.2 | 0.00 | 0.00 | 0.00 | 42 | 999.5 |
| 20260507182511 | 12 | 242 | 25.7 | 22.5 | 0.00 | 0.00 | 0.00 | 44 | 999.6 |
| 20260507182011 | 11 | 214 | 27.4 | 27.4 | 0.00 | 0.00 | 0.00 | 43 | 999.6 |
| 20260507181512 | 11 | 210 | 38.6 | 27.4 | 0.00 | 0.00 | 0.00 | 42 | 999.6 |
| 20260507180940 | 11 | 142 | 48.3 | 35.4 | 0.00 | 0.00 | 0.00 | 43 | 999.6 |
| 20260507180411 | 11 | 203 | 38.6 | 35.4 | 0.00 | 0.00 | 0.00 | 44 | 999.4 |
| 20260507175910 | 11 | 263 | 33.8 | 32.2 | 0.00 | 0.00 | 0.00 | 45 | 999.3 |
| 20260507175410 | 11 | 226 | 33.8 | 32.2 | 0.00 | 0.00 | 0.00 | 44 | 999.3 |
| 20260507174914 | 11 | 238 | 48.3 | 35.4 | 0.00 | 0.00 | 0.00 | 43 | 999.4 |
| 20260507174410 | 12 | 248 | 38.6 | 32.2 | 0.00 | 0.00 | 0.00 | 41 | 999.4 |
| 20260507173912 | 12 | 212 | 49.9 | 40.2 | 0.00 | 0.00 | 0.00 | 42 | 999.3 |
| 20260507173410 | 12 | 247 | 32.2 | 33.8 | 0.00 | 0.00 | 0.00 | 42 | 999.3 |
| 20260507172412 | 12 | 218 | 29.0 | 22.5 | 0.00 | 0.00 | 0.00 | 43 | 999.5 |
| 20260507171910 | 11 | 242 | 35.4 | 32.2 | 0.00 | 0.00 | 0.00 | 43 | 999.5 |
| 20260507171339 | 11 | 246 | 29.0 | 22.5 | 0.00 | 0.00 | 0.00 | 44 | 999.5 |
| 20260507170810 | 12 | 206 | 46.7 | 32.2 | 0.00 | 0.00 | 0.00 | 43 | 999.5 |
| 20260507170348 | 12 | 242 | 33.8 | 38.6 | 0.00 | 0.00 | 0.00 | 43 | 999.4 |
| 20260507170310 | 12 | 242 | 33.8 | 38.6 | 0.00 | 0.00 | 0.00 | 43 | 999.4 |
| 20260507165810 | 12 | 215 | 41.8 | 33.8 | 0.00 | 0.00 | 0.00 | 43 | 999.4 |
| 20260507165342 | 13 | 215 | 46.7 | 35.4 | 0.00 | 0.00 | 0.00 | 42 | 999.4 |
| 20260507165309 | 13 | 215 | 46.7 | 35.4 | 0.00 | 0.00 | 0.00 | 42 | 999.4 |
| 20260507164811 | 12 | 206 | 35.4 | 49.9 | 0.00 | 0.00 | 0.00 | 42 | 999.6 |
| 20260507164311 | 12 | 265 | 57.9 | 40.2 | 0.00 | 0.00 | 0.00 | 43 | 999.6 |
| 20260507163811 | 12 | 248 | 59.5 | 37.0 | 0.00 | 0.00 | 0.00 | 42 | 999.7 |
| 20260507163310 | 13 | 246 | 37.0 | 56.3 | 0.00 | 0.03 | 0.00 | 41 | 999.7 |
| 20260507162812 | 12 | 210 | 37.0 | 35.4 | 0.00 | 0.03 | 0.00 | 43 | 999.7 |
| 20260507162240 | 11 | 259 | 62.8 | 49.9 | 0.00 | 0.03 | 0.00 | 44 | 999.7 |
| 20260507161742 | 11 | 248 | 41.8 | 35.4 | 0.00 | 0.03 | 0.00 | 46 | 999.7 |
| 20260507161241 | 11 | 223 | 48.3 | 32.2 | 0.00 | 0.03 | 0.00 | 50 | 999.7 |
| 20260507160740 | 11 | 184 | 45.1 | 29.0 | 0.00 | 0.03 | 0.00 | 53 | 999.7 |
| 20260507160240 | 11 | 218 | 27.4 | 27.4 | 0.00 | 0.03 | 0.00 | 52 | 999.7 |
| 20260507155740 | 11 | 315 | 32.2 | 25.7 | 0.00 | 0.05 | 0.00 | 52 | 999.7 |
| 20260507155240 | 12 | 231 | 46.7 | 35.4 | 0.00 | 0.05 | 0.00 | 51 | 999.8 |
| 20260507154741 | 11 | 240 | 35.4 | 22.5 | 0.00 | 0.05 | 0.00 | 52 | 999.8 |
| 20260507154239 | 12 | 278 | 38.6 | 29.0 | 0.00 | 0.05 | 0.00 | 50 | 999.8 |
| 20260507153740 | 11 | 285 | 45.1 | 38.6 | 0.00 | 0.08 | 0.00 | 52 | 999.8 |
| 20260507153240 | 11 | 250 | 56.3 | 51.5 | 0.00 | 0.08 | 0.00 | 52 | 999.8 |
| 20260507152739 | 11 | 250 | 53.1 | 40.2 | 0.00 | 0.10 | 0.00 | 52 | 999.8 |
| 20260507152240 | 11 | 236 | 35.4 | 22.5 | 0.00 | 0.10 | 0.00 | 53 | 999.8 |
| 20260507151741 | 11 | 228 | 29.0 | 22.5 | 0.00 | 0.13 | 0.00 | 54 | 999.8 |
| 20260507151240 | 11 | 58 | 35.4 | 32.2 | 0.00 | 0.13 | 0.00 | 54 | 999.8 |
| 20260507150741 | 11 | 206 | 40.2 | 40.2 | 0.00 | 0.15 | 0.00 | 54 | 999.8 |
| 20260507150238 | 11 | 226 | 48.3 | 46.7 | 0.00 | 0.15 | 0.00 | 54 | 999.9 |
| 20260507145739 | 10 | 238 | 48.3 | 35.4 | 0.00 | 0.15 | 0.00 | 53 | 999.9 |
| 20260507145240 | 11 | 210 | 49.9 | 40.2 | 0.00 | 0.15 | 0.00 | 53 | 999.9 |
| 20260507144741 | 11 | 270 | 40.2 | 35.4 | 0.00 | 0.18 | 0.00 | 54 | 999.9 |
| 20260507144241 | 11 | 197 | 59.5 | 41.8 | 0.00 | 0.18 | 0.00 | 54 | 999.9 |
| 20260507143739 | 11 | 207 | 38.6 | 49.9 | 0.00 | 0.20 | 0.00 | 54 | 999.9 |
| 20260507143239 | 10 | 195 | 24.1 | 19.3 | 0.00 | 0.20 | 0.00 | 55 | 999.9 |
| 20260507142712 | 10 | 238 | 38.6 | 32.2 | 0.00 | 0.20 | 0.00 | 55 | 1000.0 |
| 20260507142209 | 10 | 178 | 35.4 | 32.2 | 0.00 | 0.23 | 0.00 | 56 | 1000.0 |
| 20260507141638 | 10 | 242 | 29.0 | 20.9 | 0.00 | 0.25 | 0.00 | 56 | 1000.0 |
| 20260507141138 | 10 | 292 | 56.3 | 35.4 | 0.00 | 0.25 | 0.00 | 57 | 1000.0 |
| 20260507140638 | 10 | 315 | 29.0 | 19.3 | 0.00 | 0.28 | 0.00 | 57 | 1000.0 |
| 20260507140139 | 10 | 244 | 37.0 | 29.0 | 0.00 | 0.28 | 0.00 | 57 | 1000.0 |
| 20260507135640 | 10 | 223 | 41.8 | 27.4 | 0.00 | 0.30 | 0.00 | 56 | 1000.0 |
| 20260507134608 | 10 | 270 | 46.7 | 32.2 | 0.00 | 0.30 | 0.00 | 57 | 1000.0 |
| 20260507134108 | 10 | 257 | 40.2 | 40.2 | 0.00 | 0.30 | 0.00 | 56 | 1000.0 |
| 20260507133609 | 9 | 219 | 20.9 | 16.1 | 0.00 | 0.30 | 0.00 | 58 | 1000.1 |
| 20260507133112 | 9 | 250 | 29.0 | 20.9 | 0.00 | 0.33 | 0.00 | 57 | 1000.1 |
| 20260507132609 | 9 | 215 | 32.2 | 32.2 | 0.00 | 0.33 | 0.00 | 58 | 1000.1 |
| 20260507132108 | 9 | 73 | 33.8 | 29.0 | 0.00 | 0.33 | 0.00 | 58 | 1000.1 |
| 20260507131609 | 8 | 214 | 24.1 | 37.0 | 0.00 | 0.36 | 0.00 | 58 | 1000.1 |
| 20260507131108 | 9 | 252 | 41.8 | 38.6 | 0.00 | 0.36 | 0.00 | 58 | 1000.1 |
| 20260507130610 | 9 | 210 | 38.6 | 33.8 | 0.00 | 0.38 | 0.00 | 58 | 1000.1 |
| 20260507125538 | 9 | 185 | 35.4 | 22.5 | 0.00 | 0.41 | 0.00 | 59 | 1000.2 |
| 20260507124538 | 8 | 180 | 38.6 | 32.2 | 0.00 | 0.43 | 0.00 | 60 | 1000.2 |
| 20260507124040 | 8 | 202 | 27.4 | 16.1 | 0.00 | 0.46 | 0.00 | 61 | 1000.3 |
| 20260507123541 | 8 | 202 | 27.4 | 16.1 | 0.00 | 0.46 | 0.00 | 61 | 1000.3 |
| 20260507123038 | 7 | 215 | 41.8 | 35.4 | 0.00 | 0.46 | 0.00 | 62 | 1000.3 |
| 20260507122537 | 7 | 236 | 40.2 | 33.8 | 0.00 | 0.46 | 0.00 | 63 | 1000.2 |
| 20260507122039 | 7 | 231 | 22.5 | 38.6 | 0.00 | 0.48 | 0.00 | 64 | 1000.2 |
| 20260507121537 | 7 | 260 | 35.4 | 29.0 | 0.00 | 0.48 | 0.00 | 64 | 1000.1 |
| 20260507121041 | 7 | 193 | 29.0 | 25.7 | 0.00 | 0.51 | 0.00 | 63 | 1000.1 |
| 20260507120538 | 7 | 258 | 29.0 | 32.2 | 0.00 | 0.53 | 0.00 | 63 | 1000.1 |
| 20260507120041 | 7 | 283 | 29.0 | 32.2 | 0.00 | 0.53 | 0.00 | 63 | 1000.1 |
| 20260507115511 | 7 | 124 | 38.6 | 29.0 | 0.00 | 0.56 | 0.00 | 64 | 1000.1 |
| 20260507115007 | 7 | 236 | 53.1 | 40.2 | 0.00 | 0.56 | 0.00 | 65 | 1000.0 |
| 20260507114507 | 7 | 197 | 38.6 | 25.7 | 0.00 | 0.56 | 0.00 | 69 | 1000.0 |
| 20260507114008 | 7 | 217 | 19.3 | 12.9 | 0.00 | 0.56 | 0.00 | 77 | 999.9 |
| 20260507113508 | 7 | 269 | 16.1 | 12.9 | 0.00 | 0.58 | 0.00 | 79 | 999.9 |
| 20260507113010 | 7 | 181 | 32.2 | 24.1 | 0.00 | 0.61 | 0.00 | 79 | 999.9 |
| 20260507112508 | 7 | 248 | 20.9 | 24.1 | 0.00 | 0.61 | 0.00 | 80 | 999.8 |
| 20260507112009 | 7 | 216 | 22.5 | 22.5 | 0.00 | 0.61 | 0.00 | 80 | 999.8 |
| 20260507111510 | 8 | 210 | 27.4 | 22.5 | 0.00 | 0.61 | 0.00 | 80 | 999.8 |
| 20260507111008 | 7 | 213 | 33.8 | 27.4 | 0.00 | 0.64 | 0.00 | 81 | 999.8 |
| 20260507110509 | 7 | 202 | 45.1 | 27.4 | 0.00 | 0.64 | 0.00 | 82 | 999.8 |
| 20260507105507 | 7 | 234 | 19.3 | 22.5 | 0.00 | 0.66 | 0.00 | 83 | 999.4 |
| 20260507105007 | 7 | 248 | 16.1 | 16.1 | 0.00 | 0.66 | 0.00 | 84 | 999.5 |
| 20260507104510 | 7 | 217 | 19.3 | 16.1 | 0.00 | 0.66 | 0.00 | 84 | 999.5 |
| 20260507104011 | 7 | 264 | 12.9 | 8.0 | 0.00 | 0.66 | 0.00 | 84 | 999.4 |
| 20260507103508 | 7 | 84 | 16.1 | 14.5 | 0.00 | 0.69 | 0.00 | 84 | 999.4 |
| 20260507103006 | 7 | 230 | 14.5 | 14.5 | 0.00 | 0.69 | 0.00 | 83 | 999.4 |
| 20260507102507 | 7 | 218 | 24.1 | 14.5 | 0.00 | 0.69 | 0.00 | 83 | 999.4 |
| 20260507102007 | 7 | 247 | 24.1 | 16.1 | 0.00 | 0.69 | 0.00 | 83 | 999.4 |
| 20260507101509 | 7 | 254 | 22.5 | 19.3 | 0.00 | 0.69 | 0.00 | 83 | 999.4 |
| 20260507101007 | 7 | 250 | 22.5 | 16.1 | 0.00 | 0.69 | 0.00 | 83 | 999.4 |
| 20260507100438 | 7 | 306 | 16.1 | 12.9 | 0.00 | 0.69 | 0.00 | 86 | 999.6 |
| 20260507095936 | 7 | 193 | 8.0 | 4.8 | 0.00 | 0.69 | 0.00 | 87 | 999.6 |
| 20260507095438 | 7 | 258 | 25.7 | 16.1 | 0.00 | 0.69 | 0.00 | 87 | 999.6 |
| 20260507094939 | 7 | 207 | 19.3 | 12.9 | 0.00 | 0.69 | 0.00 | 87 | 999.6 |
| 20260507094441 | 7 | 243 | 25.7 | 22.5 | 0.00 | 0.69 | 0.00 | 87 | 999.6 |
| 20260507093936 | 7 | 237 | 11.3 | 12.9 | 0.00 | 0.69 | 0.00 | 88 | 999.5 |
| 20260507093407 | 7 | 205 | 24.1 | 19.3 | 0.00 | 0.69 | 0.00 | 88 | 999.5 |
| 20260507092907 | 7 | 239 | 19.3 | 12.9 | 0.00 | 0.69 | 0.00 | 88 | 999.5 |
| 20260507092410 | 7 | 235 | 12.9 | 12.9 | 0.00 | 0.69 | 0.00 | 89 | 999.3 |
| 20260507091908 | 7 | 238 | 16.1 | 12.9 | 0.00 | 0.69 | 0.00 | 89 | 999.3 |
| 20260507091406 | 7 | 225 | 16.1 | 14.5 | 0.00 | 0.69 | 0.00 | 89 | 999.3 |
| 20260507090906 | 7 | 296 | 9.7 | 8.0 | 0.00 | 0.69 | 0.00 | 89 | 999.3 |
| 20260507090336 | 7 | 245 | 8.0 | 4.8 | 0.00 | 0.69 | 0.00 | 90 | 999.2 |
| 20260507085337 | 7 | 262 | 9.7 | 4.8 | 0.00 | 0.69 | 0.00 | 90 | 999.2 |
| 20260507084836 | 7 | 128 | 9.7 | 8.0 | 0.00 | 0.69 | 0.00 | 90 | 999.3 |
| 20260507084337 | 7 | 190 | 14.5 | 11.3 | 0.00 | 0.69 | 0.00 | 90 | 999.3 |
| 20260507083307 | 7 | 208 | 16.1 | 8.0 | 0.00 | 0.69 | 0.00 | 91 | 999.4 |
| 20260507082738 | 7 | 208 | 14.5 | 11.3 | 0.00 | 0.69 | 0.00 | 91 | 999.6 |
| 20260507082235 | 7 | 138 | 4.8 | 8.0 | 0.00 | 0.69 | 0.00 | 92 | 999.6 |
| 20260507081737 | 7 | 94 | 12.9 | 11.3 | 0.00 | 0.69 | 0.00 | 92 | 999.6 |
| 20260507081206 | 7 | 219 | 12.9 | 11.3 | 0.00 | 0.69 | 0.00 | 92 | 999.7 |
| 20260507080635 | 6 | 123 | 8.0 | 4.8 | 0.00 | 0.69 | 0.00 | 92 | 999.7 |
| 20260507080136 | 6 | 158 | 0.0 | 3.2 | 0.00 | 0.69 | 0.00 | 92 | 999.8 |
| 20260507075639 | 6 | 39 | 1.6 | 4.8 | 0.00 | 0.69 | 0.00 | 92 | 999.8 |
| 20260507075135 | 6 | 212 | 4.8 | 4.8 | 0.00 | 0.69 | 0.00 | 93 | 999.8 |
| 20260507074635 | 6 | 200 | 14.5 | 12.9 | 0.00 | 0.69 | 0.00 | 93 | 999.8 |
| 20260507074136 | 6 | 168 | 4.8 | 4.8 | 0.00 | 0.69 | 0.00 | 94 | 999.8 |
| 20260507073636 | 6 | 88 | 1.6 | 3.2 | 0.00 | 0.69 | 0.00 | 94 | 999.7 |
| 20260507073106 | 6 | 197 | 3.2 | 8.0 | 0.00 | 0.69 | 0.00 | 94 | 999.7 |
| 20260507072606 | 6 | 114 | 0.0 | 0.0 | 0.00 | 0.69 | 0.00 | 94 | 999.7 |
| 20260507072106 | 6 | 183 | 4.8 | 4.8 | 0.00 | 0.69 | 0.00 | 94 | 999.7 |
| 20260507071610 | 5 | 84 | 0.0 | 0.0 | 0.00 | 0.69 | 0.00 | 94 | 999.7 |
| 20260507071106 | 5 | 148 | 0.0 | 0.0 | 0.00 | 0.69 | 0.00 | 94 | 999.7 |
| 20260507070611 | 5 | 114 | 0.0 | 0.0 | 0.00 | 0.69 | 0.00 | 93 | 999.7 |
| 20260507070107 | 5 | 123 | 0.0 | 0.0 | 0.00 | 0.69 | 0.00 | 93 | 999.7 |
| 20260507065606 | 6 | 132 | 0.0 | 0.0 | 0.00 | 0.69 | 0.00 | 93 | 999.7 |
| 20260507065107 | 6 | 84 | 0.0 | 4.8 | 0.00 | 0.69 | 0.00 | 93 | 999.8 |
| 20260507064608 | 6 | 112 | 0.0 | 0.0 | 0.00 | 0.69 | 0.00 | 92 | 999.8 |
| 20260507064105 | 6 | 165 | 0.0 | 0.0 | 0.00 | 0.69 | 0.00 | 92 | 999.8 |
| 20260507063606 | 6 | 117 | 8.0 | 8.0 | 0.00 | 0.69 | 0.00 | 92 | 999.8 |
| 20260507063035 | 6 | 104 | 1.6 | 0.0 | 0.00 | 0.69 | 0.00 | 92 | 999.8 |
| 20260507062535 | 6 | 145 | 3.2 | 3.2 | 0.00 | 0.69 | 0.00 | 92 | 999.9 |
| 20260507062037 | 6 | 168 | 0.0 | 0.0 | 0.00 | 0.69 | 0.00 | 92 | 999.9 |
| 20260507061534 | 6 | 73 | 1.6 | 0.0 | 0.00 | 0.69 | 0.00 | 92 | 1000.0 |
| 20260507061036 | 6 | 176 | 9.7 | 8.0 | 0.00 | 0.69 | 0.00 | 92 | 1000.0 |
| 20260507060537 | 6 | 187 | 8.0 | 4.8 | 0.00 | 0.69 | 0.00 | 92 | 1000.0 |
| 20260507060036 | 6 | 122 | 3.2 | 3.2 | 0.00 | 0.69 | 0.00 | 92 | 1000.1 |
| 20260507055538 | 6 | 197 | 4.8 | 4.8 | 0.00 | 0.69 | 0.00 | 92 | 1000.1 |
| 20260507055038 | 6 | 188 | 4.8 | 4.8 | 0.00 | 0.69 | 0.00 | 92 | 1000.2 |
| 20260507054505 | 6 | 190 | 4.8 | 4.8 | 0.00 | 0.69 | 0.00 | 92 | 1000.2 |
| 20260507054004 | 6 | 181 | 4.8 | 8.0 | 0.00 | 0.69 | 0.00 | 92 | 1000.2 |
| 20260507053505 | 6 | 189 | 0.0 | 0.0 | 0.00 | 0.69 | 0.00 | 92 | 1000.2 |
| 20260507053006 | 6 | 171 | 0.0 | 0.0 | 0.00 | 0.69 | 0.00 | 92 | 1000.2 |
| 20260507052505 | 6 | 161 | 0.0 | 0.0 | 0.00 | 0.69 | 0.00 | 92 | 1000.3 |
| 20260507052005 | 6 | 182 | 1.6 | 0.0 | 0.00 | 0.69 | 0.00 | 92 | 1000.3 |
| 20260507051508 | 6 | 138 | 1.6 | 3.2 | 0.00 | 0.69 | 0.00 | 92 | 1000.5 |
| 20260507051005 | 6 | 215 | 8.0 | 8.0 | 0.00 | 0.69 | 0.00 | 92 | 1000.5 |
| 20260507050505 | 6 | 183 | 0.0 | 0.0 | 0.00 | 0.69 | 0.00 | 92 | 1000.5 |
| 20260507045936 | 6 | 151 | 3.2 | 4.8 | 0.00 | 0.69 | 0.00 | 92 | 1000.7 |
| 20260507045434 | 6 | 323 | 4.8 | 8.0 | 0.00 | 0.69 | 0.00 | 92 | 1000.7 |
| 20260507044937 | 6 | 202 | 0.0 | 0.0 | 0.00 | 0.69 | 0.00 | 92 | 1000.9 |
| 20260507044434 | 6 | 155 | 1.6 | 3.2 | 0.00 | 0.69 | 0.00 | 92 | 1000.9 |
| 20260507043935 | 6 | 97 | 1.6 | 3.2 | 0.00 | 0.69 | 0.00 | 92 | 1001.0 |
| 20260507043435 | 6 | 158 | 0.0 | 0.0 | 0.00 | 0.69 | 0.00 | 92 | 1001.0 |
| 20260507042935 | 6 | 149 | 0.0 | 0.0 | 0.00 | 0.69 | 0.00 | 92 | 1001.0 |
| 20260507042434 | 6 | 160 | 4.8 | 3.2 | 0.00 | 0.69 | 0.00 | 92 | 1001.1 |
| 20260507041934 | 6 | 153 | 1.6 | 3.2 | 0.00 | 0.69 | 0.00 | 92 | 1001.1 |
| 20260507041436 | 6 | 188 | 1.6 | 3.2 | 0.00 | 0.69 | 0.00 | 92 | 1001.1 |
| 20260507040934 | 6 | 180 | 3.2 | 3.2 | 0.00 | 0.69 | 0.00 | 92 | 1001.1 |
| 20260507040406 | 6 | 145 | 0.0 | 0.0 | 0.00 | 0.69 | 0.00 | 91 | 1001.1 |
| 20260507035904 | 6 | 133 | 0.0 | 0.0 | 0.00 | 0.69 | 0.69 | 91 | 1001.1 |
| 20260507035407 | 6 | 90 | 0.0 | 0.0 | 0.00 | 0.69 | 0.69 | 91 | 1001.1 |
| 20260507034904 | 6 | 156 | 0.0 | 0.0 | 0.00 | 0.69 | 0.69 | 91 | 1001.2 |
| 20260507033904 | 6 | 112 | 0.0 | 0.0 | 0.00 | 0.69 | 0.69 | 90 | 1001.2 |
| 20260507033404 | 6 | 130 | 0.0 | 0.0 | 0.00 | 0.69 | 0.69 | 90 | 1001.2 |
| 20260507032904 | 6 | 109 | 0.0 | 0.0 | 0.00 | 0.69 | 0.69 | 89 | 1001.2 |
| 20260507032405 | 6 | 124 | 0.0 | 0.0 | 0.00 | 0.69 | 0.69 | 89 | 1001.3 |
| 20260507031404 | 6 | 106 | 0.0 | 0.0 | 0.00 | 0.69 | 0.69 | 87 | 1001.4 |
| 20260507030903 | 6 | 90 | 0.0 | 0.0 | 0.00 | 0.69 | 0.69 | 88 | 1001.4 |
| 20260507030403 | 7 | 182 | 0.0 | 0.0 | 0.00 | 0.69 | 0.69 | 88 | 1001.3 |
| 20260507025906 | 7 | 199 | 1.6 | 3.2 | 0.00 | 0.69 | 0.69 | 87 | 1001.3 |
| 20260507025335 | 7 | 148 | 0.0 | 0.0 | 0.00 | 0.69 | 0.69 | 86 | 1001.3 |
| 20260507024835 | 7 | 162 | 0.0 | 0.0 | 0.00 | 0.69 | 0.69 | 86 | 1001.3 |
| 20260507024335 | 7 | 140 | 3.2 | 3.2 | 0.00 | 0.69 | 0.69 | 86 | 1001.3 |
| 20260507023803 | 7 | 220 | 9.7 | 8.0 | 0.00 | 0.69 | 0.69 | 85 | 1001.4 |
| 20260507023303 | 7 | 207 | 4.8 | 4.8 | 0.00 | 0.69 | 0.69 | 85 | 1001.4 |
| 20260507022734 | 7 | 214 | 8.0 | 3.2 | 0.00 | 0.69 | 0.69 | 85 | 1001.6 |
| 20260507022237 | 7 | 164 | 8.0 | 8.0 | 0.00 | 0.69 | 0.69 | 85 | 1001.6 |
| 20260507021733 | 7 | 198 | 12.9 | 8.0 | 0.00 | 0.69 | 0.69 | 84 | 1001.6 |
| 20260507021234 | 7 | 180 | 1.6 | 3.2 | 0.00 | 0.69 | 0.69 | 84 | 1001.7 |
| 20260507020734 | 7 | 181 | 4.8 | 9.7 | 0.00 | 0.69 | 0.69 | 84 | 1001.7 |
| 20260507020237 | 7 | 227 | 8.0 | 9.7 | 0.00 | 0.69 | 0.69 | 83 | 1001.7 |
| 20260507015703 | 7 | 229 | 4.8 | 9.7 | 0.00 | 0.69 | 0.69 | 83 | 1001.7 |
| 20260507014705 | 7 | 223 | 1.6 | 0.0 | 0.00 | 0.69 | 0.69 | 83 | 1001.8 |
| 20260507014204 | 7 | 309 | 4.8 | 8.0 | 0.00 | 0.69 | 0.69 | 83 | 1001.8 |
| 20260507013705 | 7 | 117 | 3.2 | 3.2 | 0.00 | 0.69 | 0.69 | 83 | 1001.7 |
| 20260507013135 | 7 | 155 | 8.0 | 4.8 | 0.00 | 0.69 | 0.69 | 82 | 1001.7 |
| 20260507012635 | 7 | 179 | 9.7 | 8.0 | 0.00 | 0.69 | 0.69 | 82 | 1001.8 |
| 20260507010637 | 7 | 213 | 4.8 | 3.2 | 0.00 | 0.69 | 0.69 | 81 | 1001.6 |
| 20260507010134 | 7 | 217 | 4.8 | 9.7 | 0.00 | 0.69 | 0.69 | 80 | 1001.6 |
| 20260507005636 | 7 | 185 | 8.0 | 3.2 | 0.00 | 0.69 | 0.69 | 80 | 1001.6 |